• MPC Preparation (Info)

  • MPEC 2020-F40 : 2020 FG1

    The following Minor Planet Electronic Circular may be linked-to from your own Web pages, but must not otherwise be redistributed electronically.

    A form allowing access to any MPEC is at the bottom of this page.


    Read MPEC 2020-F39 Read MPEC 2020-F41


    M.P.E.C. 2020-F40                                Issued 2020 March 18, 02:51 UT
    
         The Minor Planet Electronic Circulars contain information on unusual
             minor planets and routine data on comets.  They are published
        on behalf of Division F of the International Astronomical Union by the
              Minor Planet Center, Smithsonian Astrophysical Observatory,
                              Cambridge, MA 02138, U.S.A.
    
                 Prepared using the Tamkin Foundation Computer Network
    
                                  MPC@CFA.HARVARD.EDU
                URL https://www.minorplanetcenter.net/    ISSN 1523-6714
    
                                    2020 FG1                                 
    
    
    Observations:
         K20F01G* C2020 03 16.32546 12 16 56.92 +09 09 12.5          20.0 GVEF040G96
         K20F01G  C2020 03 16.33076 12 16 58.80 +09 11 01.7          20.0 GVEF040G96
         K20F01G  C2020 03 16.33608 12 17 00.70 +09 12 50.0          19.8 GVEF040G96
         K20F01G  C2020 03 16.34140 12 17 02.61 +09 14 39.6          20.0 GVEF040G96
         K20F01G  C2020 03 16.51775 12 18 06.78 +10 14 20.0          19.9 GVEF040G96
         K20F01G  C2020 03 16.51804 12 18 06.90 +10 14 27.6          19.6 GVEF040G96
         K20F01G  C2020 03 16.51833 12 18 06.96 +10 14 31.3          19.6 GVEF040G96
         K20F01G  C2020 03 16.86882 12 20 34.10 +12 10 53.5          19.8 VVEF040033
         K20F01G  C2020 03 16.86968 12 20 34.42 +12 11 10.5          19.7 VVEF040033
         K20F01G  C2020 03 16.87054 12 20 34.73 +12 11 27.4          19.5 VVEF040033
         K20F01G KC2020 03 17.02023412 21 28.58 +13 00 38.3          20.1 GVEF040L01
         K20F01G KC2020 03 17.02168112 21 29.08 +13 01 06.3          19.9 GVEF040L01
         K20F01G KC2020 03 17.02339912 21 29.69 +13 01 39.8          19.8 GVEF040L01
         K20F01G  C2020 03 17.02487 12 21 30.49 +13 01 59.4          20.8 VVEF040033
         K20F01G  C2020 03 17.02573 12 21 30.77 +13 02 15.8          20.8 VVEF040033
         K20F01G  C2020 03 17.02659 12 21 31.10 +13 02 32.8          20.8 VVEF040033
         K20F01G  C2020 03 17.36907 12 23 42.84 +14 52 49.7          21.6 GVEF040I52
         K20F01G  C2020 03 17.37089 12 23 43.46 +14 53 24.8          21.2 GVEF040I52
         K20F01G  C2020 03 17.37179 12 23 43.80 +14 53 42.0          21.0 GVEF040I52
         K20F01G  C2020 03 17.80617 12 26 34.71 +17 07 35.8          21.0 VVEF040033
         K20F01G  C2020 03 17.80709 12 26 35.07 +17 07 52.9          20.7 VVEF040033
         K20F01G  C2020 03 17.80801 12 26 35.39 +17 08 09.6          21.0 VVEF040033
         K20F01G KC2020 03 18.04618 12 27 58.80 +18 20 07.5          20.7 GVEF040K63
         K20F01G KC2020 03 18.04984 12 28 00.04 +18 21 13.3          20.6 GVEF040K63
         K20F01G KC2020 03 18.05424 12 28 01.58 +18 22 30.6          20.8 GVEF040K63
    
    Observer details:
    033 Karl Schwarzschild Observatory, Tautenburg.  Observers U. Laux, S. Melnikov,
        B. Stecklum.  Measurer B. Stecklum.  1.34-m f/3 Schmidt + CCD.
    G96 Mt. Lemmon Survey.  Observer G. J. Leonard.  Measurers E. J. Christensen, 
       G. A. Farneth, D. C. Fuls, A. R. Gibbs, A. D. Grauer, H. Groeller, R. A. 
       Kowalski, S. M. Larson, G. J. Leonard, T. A. Pruyne, D. Rankin, R. L. Seaman,
        F. C. Shelly, K. W. Wierzchos.  1.5-m reflector + 10K CCD.
    I52 Steward Observatory, Mt. Lemmon Station.  Observer H. Groeller.  Measurers 
       E. J. Christensen, G. A. Farneth, D. C. Fuls, A. R. Gibbs, A. D. Grauer, H. 
       Groeller, R. A. Kowalski, S. M. Larson, G. J. Leonard, T. A. Pruyne, D. 
       Rankin, R. L. Seaman, F. C. Shelly, K. W. Wierzchos.  1.0-m reflector + CCD.
    K63 G. Pascoli Observatory, Castelvecchio Pascoli.  Observer R. Bacci.  0.4-m 
       f/3.2 Newtonian reflector + CCD.
    L01 Visnjan Observatory, Tican.  Observer K. Korlevic.  1.0-m f/2.9 reflector + 
       CCD.
    
    Orbital elements:
    2020 FG1                                                 Earth MOID = 0.0721 AU
    Epoch 2020 May 31.0 TT = JDT 2459000.5                  Alexandersen
    M  64.48089              (2000.0)            P               Q
    n   0.63007582     Peri.  334.94655     -0.86760361     -0.49559691
    a   1.3475374      Node   174.77247     +0.49715759     -0.86616389
    e   0.2212593      Incl.   26.45650     +0.00991546     +0.06437245
    P   1.56           H   25.1           G   0.15           U   7
    Residuals in seconds of arc
    200316 G96  0.2+  0.2-    200316 033  0.2-  0.1-    200317 I52  0.4+  0.3+
    200316 G96  0.1+  0.4+    200317 L01  0.2+  0.4+    200317 033  0.1-  0.2-
    200316 G96  0.1+  0.4-    200317 L01  0.0   0.2+    200317 033  0.3+  0.0
    200316 G96  0.3+  0.2+    200317 L01  0.0   0.2+    200317 033  0.0   0.2-
    200316 G96  0.1+  0.6-    200317 033  0.2-  0.1+    200318 K63  0.1-  0.1-
    200316 G96  0.3+  1.2+    200317 033  0.6-  0.2-    200318 K63  0.2-  0.6+
    200316 G96  0.5-  1.0-    200317 033  0.2-  0.0     200318 K63  0.4+  0.3-
    200316 033  0.1-  0.1+    200317 I52  0.0   0.5-
    200316 033  0.1-  0.0     200317 I52  0.0   0.1+
    
    Ephemeris:
    2020 FG1                 a,e,i = 1.35, 0.22, 26                  q = 1.0494
    Date    TT    R. A. (2000) Decl.     Delta      r    Elong.  Phase     V
    2020 02 17    09 00 23.6 -66 49 26   0.2205  1.0494   100.1    67.9    24.3
    ...
    2020 03 03    10 35 58.7 -52 38 08   0.1157  1.0546   120.4    54.2    22.5
    ...
    2020 03 11    11 38 44.4 -22 43 47   0.07691 1.0627   153.3    24.8    20.8
    ...
    2020 03 17    12 21 21.4 +12 54 48   0.07822 1.0710   165.7    13.2    20.5
    2020 03 18    12 27 42.7 +18 06 56   0.08154 1.0726   160.6    17.9    20.7
    2020 03 19    12 33 49.6 +22 50 51   0.08556 1.0742   155.8    22.3    21.0
    ...
    2020 03 25    13 05 20.1 +42 04 13   0.1197  1.0849   134.8    40.7    22.3
    ...
    2020 04 02    13 34 45.1 +53 00 52   0.1773  1.1018   121.2    50.9    23.4
    ...
    2020 04 17    14 03 42.0 +58 44 20   0.2917  1.1399   110.6    55.5    24.7
    
    A. U. Tomatic                (C) Copyright 2020 MPC           M.P.E.C. 2020-F40
    


    Read MPEC 2020-F39 Read MPEC 2020-F41


    MPEC number:

    Enter an MPEC number in one of the following forms:

    • 1997-B01 (the full form)
    • J97B01 (the packed version of the full form)
    • B01 (the abbreviated form)